Wind_Speed
18 19 25 25 15 20 14 25 16 9 11 9 26 16 16 3 23 20 16 16 11 11 19 9 16 10 11 12 14 11 8 4 4 6 3 3 2 4 4 4 6 11 13 8
19 30 24 23 24 18 10 12 27 3 8 9 11 7 4 4 22 22 17 18 13 15 18 10 11 18 19 9 15 12 12 7 2 5 6 5 2 2 2 3 4 6 11 9
25 26 23 23 22 24 23 16 17 23 2 2 13 5 6 4 10 18 20 13 16 14 23 16 14 15 9 16 4 12 13 9 8 11 12 6 5 4 3 2 1 3 7 7
24 26 28 30 31 19 19 17 12 7 6 12 13 7 12 4 3 12 24 19 16 20 19 19 16 11 6 6 4 6 7 9 7 17 9 6 13 7 9 3 5 10 2 3
28 25 27 29 26 24 22 22 22 13 12 11 11 10 13 10 18 19 21 20 16 25 25 20 15 12 9 7 4 2 3 5 9 11 8 11 9 7 8 11 16 15 10 7
28 24 26 26 27 27 22 16 17 21 21 7 3 6 9 10 15 18 12 24 21 27 30 24 20 17 15 13 10 5 3 6 8 6 9 15 12 8 10 17 15 14 19 8
25 28 24 25 27 25 24 21 13 11 10 8 10 7 9 6 15 5 16 22 28 26 39 27 21 13 16 16 13 6 6 6 7 4 6 12 14 12 13 15 21 21 11 12
29 27 25 25 27 23 24 27 16 7 4 5 11 11 13 6 9 9 13 14 26 32 39 31 22 17 16 17 14 8 7 7 8 5 5 8 11 11 11 12 13 11 14 14
23 30 21 27 23 20 27 25 17 28 29 17 6 12 23 19 15 12 9 15 22 33 38 28 24 18 19 18 15 10 11 9 9 7 7 8 7 5 5 5 6 9 11 11
35 33 31 29 29 29 27 23 25 24 5 6 16 18 17 28 25 7 14 17 25 33 30 30 26 22 15 10 7 9 9 8 7 6 7 9 8 6 6 7 9 11 14 17
31 32 38 31 31 33 31 28 25 26 20 4 2 5 16 22 20 23 20 15 19 28 30 28 19 15 12 10 9 10 8 7 5 4 5 6 8 7 9 11 14 16 20 22
31 34 35 39 29 25 33 27 20 24 17 24 19 8 3 15 24 29 22 24 26 29 31 23 22 14 12 9 10 9 6 5 4 4 5 7 8 9 12 14 17 21 22 21
24 27 33 28 32 29 21 26 22 21 24 26 15 7 16 25 26 20 22 27 26 28 30 30 26 17 13 9 12 7 5 5 6 5 7 9 10 11 15 18 20 19 17 15
7 11 7 11 20 25 22 23 21 25 26 27 25 18 26 33 26 23 30 24 28 32 32 32 24 17 13 11 11 9 7 7 6 7 8 8 11 14 17 18 16 14 13 12
16 20 18 18 21 26 29 25 24 29 27 28 26 8 20 18 24 22 23 24 32 34 30 27 18 15 15 12 12 11 9 6 6 7 7 10 14 18 18 16 13 13 11 11
12 22 16 26 27 25 23 23 23 21 31 29 20 24 18 18 28 28 14 18 35 31 25 21 26 17 17 14 13 12 8 8 8 7 9 13 17 18 16 14 13 12 10 10
11 15 17 24 22 21 24 22 23 23 20 14 23 24 15 18 27 33 24 14 33 39 30 23 28 24 17 15 15 11 11 10 9 8 11 15 17 16 14 13 11 10 10 9
19 13 14 21 20 10 25 20 23 24 23 22 20 18 19 17 27 25 25 23 34 37 27 32 27 22 16 16 15 12 12 11 9 10 13 15 15 13 12 11 9 9 9 9
11 12 23 14 16 14 19 21 20 21 23 20 26 22 25 13 28 27 31 28 18 22 19 29 22 18 16 14 14 12 13 11 10 12 14 14 13 12 11 10 10 9 9 9
19 24 27 25 14 7 19 19 20 23 34 20 15 19 22 22 29 32 33 30 22 20 14 22 20 19 18 12 13 13 12 10 11 13 14 13 12 11 10 10 9 9 9 9
23 22 28 27 22 26 20 22 18 2 8 12 7 18 19 22 27 27 29 30 22 16 12 17 23 20 14 13 13 8 9 11 12 13 14 11 11 10 10 9 9 9 10 9
18 25 24 15 27 20 16 12 5 6 3 9 2 4 12 29 27 27 31 26 28 23 19 24 25 19 15 13 8 7 9 12 12 14 13 10 10 10 10 9 9 9 9 8
15 9 13 16 8 6 7 3 4 6 7 6 15 16 8 7 18 26 28 34 32 11 22 26 19 11 10 9 7 8 9 13 12 13 11 10 9 9 10 10 10 9 9 8
19 18 25 20 23 24 24 12 3 2 9 10 4 12 10 4 10 18 13 19 21 28 19 22 15 12 12 9 6 11 12 13 13 11 10 10 9 8 10 10 9 10 8 7
13 15 13 27 29 30 24 18 14 12 7 8 15 5 14 7 7 6 8 9 15 22 24 22 20 15 10 8 6 11 12 14 13 12 10 10 10 10 9 9 8 10 6 7
19 16 15 19 23 35 30 24 17 23 19 15 8 8 26 17 14 20 13 13 19 21 21 22 15 9 4 7 8 13 16 13 13 12 10 10 11 10 9 8 7 4 4 6
Wind_Direction
239 243 250 257 257 223 270 267 234 200 250 199 208 206 307 211 210 216 212 208 224 192 211 209 209 236 249 268 277 291 279 357 128 134 156 167 132 77 54 43 41 39 35 91
230 238 245 255 268 249 231 271 239 220 230 188 197 279 282 181 213 210 207 219 245 201 206 199 202 207 209 272 263 278 264 267 266 170 182 182 182 106 105 87 60 54 47 52
231 239 240 252 270 277 269 243 244 204 101 300 188 226 124 153 157 223 232 248 240 221 219 205 226 230 256 352 34 263 255 244 244 241 201 175 218 240 215 154 166 72 63 42
241 235 247 254 259 276 272 259 258 249 213 223 328 113 149 137 258 220 217 237 238 216 230 246 274 260 263 346 8 224 239 241 265 271 243 291 308 212 237 248 315 290 310 319
239 242 243 253 259 261 256 273 271 291 261 279 279 138 180 192 269 228 219 221 222 237 229 253 280 278 273 269 328 173 27 346 283 311 306 308 335 266 251 303 290 295 238 263
242 242 248 255 259 265 273 278 276 284 294 282 217 190 188 189 348 289 252 221 214 213 233 245 261 271 280 266 279 291 355 353 354 293 286 295 320 312 287 278 285 273 255 259
239 246 246 246 258 260 271 274 273 294 293 237 201 149 200 231 326 2 216 233 210 196 220 240 261 260 273 268 288 274 314 339 347 273 320 299 302 285 288 278 268 284 285 293
236 254 244 244 245 263 246 262 235 230 248 250 183 174 196 133 153 132 215 183 201 203 208 236 248 259 273 282 278 282 294 306 300 282 261 280 295 297 285 272 269 291 296 297
248 242 243 242 243 250 250 264 266 258 268 280 179 137 164 167 150 329 254 216 214 194 207 240 247 256 264 269 268 243 247 268 284 279 257 255 271 261 250 276 303 297 299 301
241 264 245 252 250 233 234 246 260 270 214 255 269 183 207 175 185 354 172 176 193 193 225 239 247 257 260 262 242 229 237 259 267 259 244 248 242 245 270 295 304 303 304 308
236 244 253 261 269 230 224 227 247 266 271 187 283 305 227 206 191 154 146 207 200 207 224 234 249 251 249 244 229 222 234 257 274 283 264 245 242 254 276 298 312 313 307 304
231 236 247 260 261 279 221 218 232 244 270 279 291 313 219 180 175 162 173 195 210 220 225 241 245 243 247 240 212 218 233 258 272 272 277 277 282 290 299 308 307 302 300 297
220 232 235 258 262 258 259 222 228 254 269 270 263 215 168 172 175 176 177 193 206 216 228 242 244 238 239 226 218 218 233 261 265 272 284 288 293 303 307 305 305 303 300 300
273 258 273 262 268 266 284 207 233 233 246 266 269 205 186 182 189 176 188 198 205 216 232 241 243 231 230 224 212 220 231 255 271 280 281 290 302 303 305 307 306 302 303 305
284 268 258 260 268 279 274 273 242 232 237 250 270 275 223 216 217 202 205 214 215 222 233 241 241 225 230 227 220 222 234 277 267 278 283 297 305 311 312 310 308 306 311 316
292 250 256 262 274 278 284 280 274 297 227 237 260 261 268 261 230 191 196 202 226 222 225 233 233 217 228 227 227 232 250 269 274 287 299 308 311 311 310 306 305 304 307 305
289 249 242 255 269 279 288 275 273 283 281 266 244 259 281 261 208 202 229 230 202 220 225 227 227 221 219 224 232 238 253 272 282 291 301 306 311 308 302 299 298 298 298 298
299 279 258 253 247 270 272 271 269 279 280 273 273 269 280 279 240 219 210 198 202 220 225 238 226 216 215 226 232 241 256 271 277 291 302 309 308 300 295 292 291 291 293 300
250 272 293 287 279 267 262 264 275 274 276 267 259 257 267 277 211 215 201 200 204 234 232 247 226 212 216 224 227 239 255 265 277 291 302 307 300 294 292 291 289 290 292 302
268 260 268 271 277 267 263 292 288 279 260 276 251 250 247 246 200 215 212 202 242 219 228 235 210 209 217 211 220 237 250 261 279 295 305 306 296 295 291 287 285 287 289 291
261 262 255 260 263 264 274 290 307 241 347 355 296 232 229 242 251 254 226 215 225 220 209 217 220 214 198 190 221 234 250 267 285 299 305 301 297 293 284 281 281 277 281 274
307 262 252 295 251 259 320 274 35 348 265 350 319 231 236 241 247 218 204 190 214 187 209 206 208 203 195 196 211 242 259 273 292 303 301 299 296 289 283 276 271 277 285 289
277 246 272 276 268 220 37 356 272 271 318 327 6 360 336 328 213 197 202 208 233 224 229 227 204 202 204 206 223 256 269 283 294 300 297 299 290 280 276 271 271 283 288 290
339 294 250 298 272 267 268 256 259 253 267 283 299 347 22 151 204 209 221 260 235 180 220 227 220 211 216 228 246 268 278 285 297 299 297 295 287 276 271 269 286 290 291 307
330 331 328 265 284 265 272 279 278 295 263 270 244 327 324 213 268 167 252 275 175 183 210 218 218 221 220 235 247 273 286 286 305 300 297 294 286 276 267 273 278 277 330 317
278 288 289 301 279 275 275 267 280 276 261 233 218 217 261 291 249 240 276 246 205 204 213 202 197 196 233 284 276 280 279 295 310 297 298 289 277 260 257 270 286 333 285 296
Height
3166 3169 3165 3164 3165 3168 3170 3168 3169 3172 3171 3179 3171 3169 3169 3169 3174 3177 3178 3176 3178 3181 3183 3186 3187 3190 3190 3186 3186 3186 3186 3187 3186 3185 3185 3186 3187 3186 3188 3187 3187 3186 3183 3182
3164 3160 3163 3163 3162 3168 3163 3162 3165 3171 3167 3168 3168 3165 3166 3171 3174 3176 3176 3175 3178 3180 3180 3183 3186 3184 3184 3187 3183 3183 3182 3182 3183 3181 3182 3184 3186 3186 3186 3187 3187 3185 3184 3184
3157 3158 3161 3160 3159 3161 3160 3162 3160 3163 3163 3166 3164 3170 3169 3169 3173 3182 3180 3174 3175 3177 3177 3182 3180 3181 3181 3179 3178 3181 3180 3181 3178 3179 3177 3179 3178 3184 3183 3183 3184 3181 3182 3183
3153 3155 3156 3157 3158 3159 3158 3160 3160 3161 3160 3162 3163 3168 3171 3171 3173 3170 3177 3174 3175 3174 3175 3177 3178 3181 3182 3182 3182 3180 3178 3179 3177 3173 3138 3173 3178 3181 3182 3181 3183 3183 3183 3181
3150 3151 3152 3153 3153 3155 3155 3156 3155 3157 3158 3158 3160 3163 3164 3161 3160 3166 3168 3172 3178 3176 3173 3173 3175 3179 3181 3181 3181 3179 3180 3178 3176 3174 3174 3174 3176 3178 3179 3183 3183 3182 3181 3177
3145 3148 3149 3150 3149 3150 3152 3152 3152 3153 3155 3154 3156 3156 3160 3159 3155 3157 3163 3169 3172 3175 3172 3172 3175 3177 3177 3178 3179 3180 3178 3177 3176 3175 3176 3176 3177 3177 3178 3179 3179 3178 3176 3176
3140 3140 3142 3146 3146 3146 3148 3149 3150 3153 3153 3152 3150 3152 3152 3151 3154 3150 3155 3159 3165 3168 3172 3170 3172 3174 3174 3175 3176 3177 3176 3175 3174 3175 3176 3175 3175 3175 3175 3175 3175 3173 3173 3173
3137 3137 3138 3139 3142 3145 3144 3147 3146 3154 3152 3148 3148 3147 3146 3151 3151 3153 3157 3156 3161 3160 3165 3166 3169 3171 3169 3169 3172 3174 3172 3173 3173 3173 3174 3174 3173 3172 3171 3172 3172 3171 3170 3169
3134 3132 3134 3136 3139 3141 3141 3140 3145 3144 3143 3143 3145 3147 3149 3146 3149 3149 3151 3153 3158 3158 3161 3164 3165 3167 3167 3167 3169 3171 3171 3172 3171 3171 3171 3172 3171 3171 3171 3171 3170 3168 3167 3166
3129 3130 3127 3130 3135 3135 3136 3140 3141 3139 3142 3143 3136 3138 3136 3139 3146 3146 3147 3148 3153 3155 3162 3161 3161 3163 3163 3165 3166 3166 3167 3168 3168 3168 3169 3168 3169 3170 3169 3168 3168 3166 3164 3162
3126 3128 3122 3125 3125 3127 3132 3133 3136 3137 3136 3137 3138 3135 3134 3137 3144 3145 3144 3144 3146 3152 3156 3158 3159 3160 3160 3162 3162 3163 3163 3163 3164 3165 3165 3166 3166 3167 3167 3165 3163 3161 3159 3158
3120 3121 3120 3116 3118 3122 3123 3126 3129 3131 3131 3130 3132 3132 3133 3138 3138 3137 3140 3145 3149 3151 3153 3153 3156 3157 3158 3159 3159 3159 3160 3160 3160 3161 3162 3163 3162 3162 3161 3160 3158 3156 3155 3153
3113 3113 3115 3114 3115 3115 3120 3121 3124 3128 3128 3126 3128 3131 3133 3136 3139 3139 3140 3146 3145 3149 3151 3153 3154 3155 3156 3157 3156 3156 3157 3157 3158 3158 3158 3159 3159 3158 3156 3155 3153 3151 3150 3148
3109 3109 3111 3113 3113 3115 3117 3116 3119 3121 3122 3124 3124 3123 3127 3130 3134 3138 3142 3144 3144 3145 3149 3150 3152 3154 3155 3154 3154 3154 3154 3154 3155 3156 3156 3155 3155 3154 3153 3151 3149 3147 3146 3144
3107 3107 3109 3110 3112 3111 3112 3114 3114 3114 3116 3119 3121 3122 3124 3124 3127 3135 3140 3139 3141 3140 3142 3144 3148 3151 3151 3151 3151 3151 3152 3153 3152 3153 3153 3153 3152 3150 3148 3146 3145 3144 3142 3140
3107 3105 3108 3108 3108 3107 3105 3105 3107 3108 3109 3111 3113 3116 3121 3122 3125 3129 3130 3136 3135 3135 3135 3139 3141 3144 3147 3149 3147 3150 3150 3150 3149 3149 3149 3149 3148 3146 3144 3143 3142 3140 3139 3138
3106 3106 3107 3105 3106 3105 3102 3102 3103 3104 3106 3108 3109 3111 3112 3113 3112 3118 3121 3122 3123 3129 3131 3134 3136 3140 3141 3145 3147 3147 3147 3146 3147 3146 3146 3145 3144 3142 3141 3140 3139 3138 3137 3136
3101 3102 3103 3103 3104 3103 3099 3100 3100 3100 3100 3102 3103 3105 3106 3104 3105 3110 3114 3116 3122 3126 3132 3130 3134 3135 3137 3140 3143 3143 3145 3143 3143 3143 3142 3141 3140 3138 3137 3136 3135 3135 3134 3133
3098 3098 3099 3099 3099 3100 3099 3099 3099 3099 3099 3101 3101 3101 3100 3099 3101 3102 3103 3109 3112 3116 3118 3123 3129 3132 3133 3136 3140 3141 3141 3141 3141 3140 3138 3137 3136 3135 3134 3133 3133 3132 3131 3130
3096 3098 3098 3096 3097 3096 3095 3096 3095 3095 3095 3094 3094 3095 3095 3097 3098 3095 3099 3107 3110 3112 3112 3116 3122 3127 3130 3132 3135 3138 3139 3139 3138 3136 3133 3133 3132 3132 3131 3130 3130 3129 3128 3127
3092 3092 3092 3091 3093 3093 3091 3089 3088 3090 3094 3087 3087 3089 3092 3089 3092 3094 3098 3104 3105 3103 3104 3113 3122 3122 3124 3127 3130 3131 3135 3137 3134 3132 3130 3129 3129 3128 3127 3127 3127 3126 3124 3124
3084 3084 3085 3087 3088 3089 3087 3086 3088 3091 3090 3087 3085 3083 3083 3084 3085 3085 3093 3102 3105 3084 3106 3107 3112 3118 3122 3123 3124 3126 3128 3133 3130 3128 3127 3126 3125 3125 3125 3124 3124 3123 3121 3119
3084 3082 3077 3087 3086 3085 3082 3086 3086 3084 3084 3088 3086 3081 3080 3081 3080 3082 3088 3087 3092 3108 3113 3112 3115 3119 3121 3121 3122 3123 3124 3128 3127 3125 3123 3122 3122 3122 3121 3121 3121 3120 3118 3117
3080 3081 3082 3082 3082 3079 3084 3084 3081 3081 3082 3084 3086 3084 3085 3085 3083 3083 3092 3093 3091 3095 3109 3115 3116 3116 3118 3118 3119 3122 3121 3124 3122 3121 3118 3117 3118 3119 3118 3118 3118 3117 3115 3114
3079 3078 3071 3082 3075 3072 3074 3074 3076 3080 3078 3079 3080 3077 3087 3086 3085 3085 3086 3087 3094 3099 3107 3112 3116 3117 3116 3117 3117 3118 3117 3120 3117 3117 3115 3113 3114 3114 3115 3115 3115 3114 3112 3112
3077 3079 3080 3075 3073 3069 3070 3073 3076 3077 3079 3078 3077 3079 3081 3083 3084 3084 3085 3088 3089 3094 3103 3109 3110 3112 3112 3113 3114 3114 3116 3114 3112 3113 3111 3111 3111 3112 3111 3111 3111 3110 3112 3111